Regional Weather Roundup
Issued by NWS

Home | Current Version | Previous Version | Text Only | Print | Product List | Glossary On
Versions: 1 2 3 4 5 6 7 8 9 10 11 12 13 14 15 16 17 18 19 20 21 22 23 24 25 26 27 28 29 30 31 32 33 34 35 36 37 38 39 40 41 42 43 44 45 46 47 48 49 50
126
ASUS42 KTBW 271317
RWRFL
FLORIDA REGIONAL WEATHER ROUNDUP
NATIONAL WEATHER SERVICE TAMPA BAY RUSKIN FL
900 AM EDT THU JUL 27 2017

NOTE: "FAIR" INDICATES FEW OR NO CLOUDS BELOW 12,000 FEET WITH NO
SIGNIFICANT WEATHER AND/OR OBSTRUCTIONS TO VISIBILITY.

FLZ001>010-012>015-112-114-115-271400-
PANHANDLE FLORIDA

CITY           SKY/WX    TMP DP  RH WIND       PRES   REMARKS
PENSACOLA      CLOUDY    80  72  76 NW8       30.05R
PENSACOLA NAS  CLOUDY    78  73  84 NW7       30.04R
MILTON NAS     MOSUNNY   79  76  90 NW5       30.05
CRESTVIEW      SUNNY     79  73  82 VRB3      30.07R
DUKE FIELD     FAIR      77  73  87 N5        30.05R
VALPARAISO     MOSUNNY   79  72  79 N6        30.05R
MARY ESTHER    MOSUNNY   80  75  85 N7        30.04R
PANAMA CITY    FAIR      79  73  82 N6        30.03R
TYNDALL AFB    SUNNY     80  74  82 E5        30.03S
APALACHICOLA   SUNNY     81  78  91 NE5       30.03R

STATION/POSITION SKY/WX   TEMP    WIND        PRES    WAVE   SWELL
                          AIR SEA DIR/SP/G            HT/PER HT/PER
                          (F)     (DEG/KT/KT) (MB)    (FT/S) (FT/S)
30.1N   87.6W              83 86  350/  6/  8 1017.0R   1
29.2N   88.2W              85 87  360/ 10/ 12 1017.3R   1/ 3
28.8N   86.0W              77 85  250/ 12/ 16 1016.4    1/ 8
PANAMA CITY BEAC           78      30/  5/  8 1017.2R
TOWER C                    84                 1017.3R
28.5N   84.5W              83 86  270/  8/  8 1016.5R   1/ 8

$$
FLZ011-016>038-118-127-128-134-139-239-271400-
NORTH FLORIDA

CITY           SKY/WX    TMP DP  RH WIND       PRES   REMARKS
MARIANNA       SUNNY     79  74  84 NE5       30.04R
TALLAHASSEE    MOSUNNY   79  74  84 N3        30.04R
PERRY          CLOUDY    74  73  97 N5        30.05R FOG
LIVE OAK       CLOUDY    73  73 100 CALM      30.05R FOG
CROSS CITY     CLOUDY    76  75  98 N3        30.07R FOG
LAKE CITY      FAIR      75  75 100 CALM      30.03S
GAINESVILLE    SUNNY     79  75  87 CALM      30.06R
WILLISTON      SUNNY     81  79  94 CALM      30.04R FOG
PALATKA        FAIR      82  77  83 SW6       30.03S
MAYPORT NAS    CLOUDY    79  78  97 CALM      30.02R
JACKSONVILLE   CLOUDY    78  77  96 CALM      30.01S
JAX NAS        CLOUDY    80  76  87 CALM      30.03R
JAX CECIL      PTSUNNY   77  77 100 CALM      30.02S FOG
FERNANDINA BEA CLOUDY    81  79  94 CALM      30.00F
ST AUGUSTINE   PTSUNNY   81  76  84 SW5       30.04R HAZE
PALM COAST     MOSUNNY  N/A N/A N/A CALM      30.03S

STATION/POSITION SKY/WX   TEMP    WIND        PRES    WAVE   SWELL
                          AIR SEA DIR/SP/G            HT/PER HT/PER
                          (F)     (DEG/KT/KT) (MB)    (FT/S) (FT/S)
SHELL POINT      NOT AVBL
KEATON BEACH               76      60/  4/  5 1016.4R
CEDAR KEY                  85     250/  5/  9 1016.5R
FERNANDINA                 79 83  230/  1/  2 1017.1F
30.7N   81.3W                 78                N/A     2/ 8
MAYPORT                    79 82  270/  2/  3 1017.1R
31.4N   80.9W              76 80   30/ 14/ 16 1016.3    2/ 9   2/ 9
ST AUGUSTINE               78 75  160/  5/  6 1017.0R

$$
FLZ040-043>046-052-053-057-058-063-144-271400-
INTERIOR CENTRAL FLORIDA

CITY           SKY/WX    TMP DP  RH WIND       PRES   REMARKS
OCALA          CLOUDY    78  76  93 S3        30.04R
THE VILLAGES     N/A     81  81 100 CALM      29.95R
LEESBURG       MOSUNNY   82  78  88 SW3       30.05R
SANFORD        CLOUDY    82  75  79 S6        30.04R
ORLANDO EXEC   MOSUNNY   81  75  82 SW8       30.04R
ORLANDO INTL   PTSUNNY   80  75  84 SW9       30.04R
KISSIMMEE      MOSUNNY   80  75  84 SW6       30.05S
WINTER HAVEN   MOSUNNY   80  72  76 S5        30.06S
LAKELAND       SUNNY     81  73  78 VRB5      30.05S
BARTOW         MOSUNNY   75  75 100 CALM      30.06R
SEBRING        FAIR      83  75  75 S3        30.05S
OKEECHOBEE     SUNNY     81  77  89 CALM      30.05S

$$
FLZ041-047-054-059-064-141-147-271400-
EAST CENTRAL FLORIDA

CITY           SKY/WX    TMP DP  RH WIND       PRES   REMARKS
ORMOND BEACH   SUNNY     79  75  89 CALM      30.04R
DAYTONA BEACH  CLOUDY    81  78  91 S6        30.04R
DELAND         CLOUDY    81  77  89 S6        30.04R
NEW SMYRNA BEA MOSUNNY   82  75  78 SW6       30.05R
JFK SPACE CTR  CLOUDY    82  79  92 SW7       30.03R
TITUSVILLE     MOSUNNY   82  81  94 S6        30.05R HX  95
CAPE CANAVERAL CLOUDY    83  80  89 SW7       30.03R HX  95
PATRICK AFB    CLOUDY    83  78  82 SW8       30.04R
MELBOURNE      CLOUDY    84  77  79 S8        30.04R
VERO BEACH     SUNNY     85  76  74 SW7       30.05R
FT PIERCE      SUNNY     83  78  85 SW5       30.05R
STUART         MOSUNNY   86  81  84 S8        30.05S HX 102

STATION/POSITION SKY/WX   TEMP    WIND        PRES    WAVE   SWELL
                          AIR SEA DIR/SP/G            HT/PER HT/PER
                          (F)     (DEG/KT/KT) (MB)    (FT/S) (FT/S)
28.5N   80.2W              82 82  220/ 10/ 10 1018.6R   2/ 3   2/ 8
28.9N   78.5W              84 85  190/ 10/ 12 1017.5S   3/ 6   2/ 6
TRIDENT PIER               82 83  190/  7/ 10 1018.9R
28.4N   80.5W                 82                N/A     1/10
27.5N   80.2W                 80                N/A     1/10

$$
FLZ050-056-061-142-242-148-248-149-249-151-251-155-255-
160-260-271400-
WEST CENTRAL FLORIDA

CITY           SKY/WX    TMP DP  RH WIND       PRES   REMARKS
CRYSTAL RIVER  FAIR      79  77  94 CALM      30.04R
INVERNESS      FAIR      79  77  94 S5        30.05R FOG
BROOKSVILLE    SUNNY     81  77  88 CALM      30.05R
CLEARWATER AIR FAIR      82  75  78 S3        30.04S
ST PETE CLEARW MOSUNNY   86  75  69 W5        30.04R HX  95
TAMPA INTL     PTSUNNY   84  77  79 SE6       30.05R
TAMPA EXEC     SUNNY     84  75  74 CALM      30.06R
PLANT CITY     SUNNY     82  77  83 CALM      30.07S
MACDILL AFB    SUNNY     83  80  89 S7        30.05R HX  96
PETER O KNIGHT MOSUNNY   86  81  84 S6        30.05S HX 102
ST PETERSBURG  CLOUDY    84  77  79 S12       30.03R
SARASOTA       PTSUNNY   83  73  72 VRB3      30.03F
VENICE         FAIR      84  75  74 CALM      30.05R

STATION/POSITION SKY/WX   TEMP    WIND        PRES    WAVE   SWELL
                          AIR SEA DIR/SP/G            HT/PER HT/PER
                          (F)     (DEG/KT/KT) (MB)    (FT/S) (FT/S)
27.3N   84.2W                 86                N/A     2/ 5
CLEARWATER BEACH           85 89  260/  5/  7 1017.3S
MIDDLE TAMPA BAY           83     180/  9/ 10 1017.7R
VENICE                     81 87  100/  4/  5 1017.1R

$$
FLZ066-069-070-075>078-162-262-165-265-271400-
SOUTHWEST FLORIDA AND KEYS

CITY           SKY/WX    TMP DP  RH WIND       PRES   REMARKS
PUNTA GORDA    SUNNY     83  76  79 CALM      30.05S
FT MYERS       SUNNY     82  78  88 E3        30.04R
SOUTHWEST INTL SUNNY     83  75  77 E6        30.04R
NAPLES         SUNNY     83  78  85 NE7       30.03S
MARCO ISLAND   CLOUDY    82  77  83 NE6       30.04S
IMMOKALEE      FAIR      82  77  83 N3        30.06R
MARATHON       SUNNY     87  78  74 SE7       30.00F HX 100
KEY WEST NAS   MOSUNNY   85  78  80 E12       30.01R HX  96
KEY WEST INTL  SUNNY     86  74  67 SE13      30.01S

STATION/POSITION SKY/WX   TEMP    WIND        PRES    WAVE   SWELL
                          AIR SEA DIR/SP/G            HT/PER HT/PER
                          (F)     (DEG/KT/KT) (MB)    (FT/S) (FT/S)
NAPLES                        88   80/  3/  6 1017.0R
DRY TORTUGAS               86      90/  5/  7 1016.9R
SAND KEY                   85                 1016.6R
MOLASSES REEF              84 86  150/ 10/ 11 1016.7R

$$
FLZ067-068-071>074-168-172>174-271400-
SOUTHEAST FLORIDA

CITY           SKY/WX    TMP DP  RH WIND       PRES   REMARKS
W PALM BEACH   MOSUNNY   86  76  71 SE10      30.03S HX  96
BOCA RATON     MOSUNNY   86  77  74 SE9       30.03R HX  97
FT LAUDER-EXEC MOSUNNY   86  75  69 SE9       30.02R HX  95
FT LAUDERDALE  MOSUNNY   86  76  71 SE13      30.01R HX  96
POMPANO BEACH  MOSUNNY   87  77  72 SE12      30.02R HX  99
PEMBROKE PINES MOSUNNY   86  76  71 SE10      30.03R HX  96
OPA LOCKA      MOSUNNY   86  77  74 SE12      30.02S HX  97
MIAMI          MOSUNNY   86  76  71 SE14      30.02S HX  96
WEST KENDALL   MOSUNNY   86  77  74 SE6       30.02S HX  97
HOMESTEAD      MOSUNNY   87  80  80 E8        30.01S HX 102

STATION/POSITION SKY/WX   TEMP    WIND        PRES    WAVE   SWELL
                          AIR SEA DIR/SP/G            HT/PER HT/PER
                          (F)     (DEG/KT/KT) (MB)    (FT/S) (FT/S)
PORT EVERGLADES            86     120/  5/  8 1016.7R
VIRGINIA KEY               86 88   90/  6/  9 1016.0S
LAKE WORTH                        140/  9/ 10   N/A
FOWEY ROCKS                85 86  100/ 10/ 11 1017.2S
SETTLEMENT POINT           84



USA.gov is the U.S. government's official web portal to all federal, state and local government web resources and services.